Regional Weather Roundup
Issued by NWS Burlington, VT

Home | Current Version | Previous Version | Text Only | Print | Product List | Glossary On
Versions: 1 2 3 4 5 6 7 8 9 10 11 12 13 14 15 16 17 18 19 20 21 22 23 24 25 26 27 28 29 30 31 32 33 34 35 36 37 38 39 40 41 42 43 44 45 46 47 48 49 50
007
ASUS41 KBTV 010430
RWRBTV
VERMONT REGIONAL WEATHER ROUNDUP
NATIONAL WEATHER SERVICE BURLINGTON VT
1200 AM EDT THU SEP 01 2016

NOTE: "FAIR" INDICATES FEW OR NO CLOUDS BELOW 12,000 FEET WITH NO
SIGNIFICANT WEATHER AND/OR OBSTRUCTIONS TO VISIBILITY.

* THESE REPORTS ARE NOT UNDER NWS QUALITY CONTROL AND/OR DO NOT
  REPORT WEATHER SUCH AS PRECIPITATION AND FOG.

VTZ001>019-010500-
_____VERMONT_____


CITY           SKY/WX    TMP DP  RH WIND       PRES   REMARKS
BURLINGTON     MOCLDY    70  63  78 CALM      29.85R
MONTPELIER     CLEAR     62  60  93 CALM      29.90S
MORRISVILLE    RAIN      65  62  90 CALM      29.87F FOG
ST. JOHNSBURY*   N/A     69  62  78 MISG      29.83F
LYNDONVILLE*   LGT RAIN  63  62  97 CALM      29.89R
MIDDLEBURY*    CLOUDY    69  65  86 CALM      29.85S
RUTLAND*       CLOUDY    68  63  84 E3        29.87F
SPRINGFIELD    CLOUDY    62  60  93 CALM      29.87F
HIGHGATE*      CLOUDY    65  64  95 CALM      29.84S
NEWPORT*       CLOUDY    62  61  98 CALM      29.86S
BENNINGTON     CLOUDY    68  63  84 CALM      29.89F
MT. MANSFIELD*   N/A     57 N/A N/A NW23        N/A

_____LAKE CHAMPLAIN_____


CITY           SKY/WX    TMP DP  RH WIND       PRES   REMARKS
BURTON ISLAND*   N/A     70  64  83 W2          N/A
COLCHESTER RF*   N/A     72  66  83 W12         N/A
DIAMOND ISL*     N/A     72  66  83 W1          N/A

$$

NYZ007-026>031-035-052-083-087-010500-
_____NORTHERN NEW YORK_____


CITY           SKY/WX    TMP DP  RH WIND       PRES   REMARKS
PLATTSBURGH    MOCLDY    64  63  96 S3        29.84S
SARANAC LAKE   CLOUDY    61  59  93 CALM      29.91R
MASSENA        CLOUDY    66  60  81 NW3       29.89R
OGDENSBURG*    MOCLDY    64  57  77 N5        29.90R
POTSDAM*       CLOUDY    64  64 100 CALM      29.89F
WATERTOWN      MOCLDY    62  60  93 CALM      29.90S
FT DRUM        PTCLDY    62  60  92 N6        29.90S
ALBANY         CLOUDY    70  65  84 CALM      29.87F
GLENS FALLS    CLOUDY    70  66  87 W5        29.86S

$$
NHZ002-005-011-010500-
_____NEW HAMPSHIRE_____


CITY           SKY/WX    TMP DP  RH WIND       PRES   REMARKS
LEBANON        MOCLDY    64  60  87 CALM      29.85S
KEENE          PTCLDY    68  66  93 CALM      29.87F
MT WASHINGTON  LGT RAIN  52  52 100 W35G46      N/A  VSB 0
PLYMOUTH       FAIR      60  59  96 CALM      29.84F
WHITEFIELD     CLOUDY    65  61  87 CALM      29.86F

$$

_____REGIONAL QUEBEC LOCATIONS_____


CITY           SKY/WX    TMP DP  RH WIND       PRES   REMARKS
MONTREAL       PTCLDY    68  57  68 W15       29.84R
QUEBEC CITY    MOCLDY    63  61  94 W7        29.80S
SHERBROOKE     LGT RAIN  63  61  94 E5        29.84R

_____REGIONAL ONTARIO LOCATIONS_____


CITY           SKY/WX    TMP DP  RH WIND       PRES   REMARKS
OTTAWA         CLEAR     63  52  67 NW6       29.91R

______KEY______
VSB  - VISIBILITY IN MILES
WCI  - WIND CHILL INDEX
HX   - HEAT INDEX
$$
NNNN




USA.gov is the U.S. government's official web portal to all federal, state and local government web resources and services.